Regional Weather Roundup
Issued by NWS

Home | Current Version | Previous Version | Text Only | Print | Product List | Glossary On
Versions: 1 2 3 4 5 6 7 8 9 10 11 12 13 14 15 16 17 18 19 20 21 22 23 24 25 26 27 28 29 30 31 32 33 34 35 36 37 38 39 40 41 42 43 44 45 46 47 48 49 50
000
ASUS45 KBOU 260507
RWRCO

WEATHER ROUNDUP FOR COLORADO
NATIONAL WEATHER SERVICE DENVER/BOULDER CO
1100 PM MDT FRI JUL 25 2014

NOTE: "FAIR" INDICATES FEW OR NO CLOUDS BELOW 12000 FEET WITH NO
SIGNIFICANT WEATHER AND/OR OBSTRUCTIONS TO VISIBILITY.

COZ001>005-013-030-031-260600-
...NORTHWEST COLORADO...

CITY           SKY/WX    TMP DP  RH WIND       PRES   REMARKS
CRAIG          MOCLDY    57  51  80 CALM      30.23R
HAYDEN         MOCLDY    64  45  48 SE6       30.27R
MEEKER         PTCLDY    60  52  74 NE3       30.23R
MOUNT WERNER   NOT AVBL
STEAMBOAT SPGS MOCLDY    60  49  68 CALM      30.28R
WALDEN         PTCLDY    54  45  71 E10       30.35S
$$

COZ006>008-011-260600-
...WEST CENTRAL VALLEYS...

CITY           SKY/WX    TMP DP  RH WIND       PRES   REMARKS
GRAND JUNCTION MOCLDY    71  59  65 SE6       30.09S
MONTROSE       MOCLDY    73  53  49 SE8       30.19S
EAGLE          CLEAR     63  52  67 E5        30.29R
RIFLE          MOCLDY    70  50  49 NE5       30.17R
DELTA          MOCLDY    77  51  40 NE7       30.14S
NUCLA          MOCLDY    77  46  33 SE8       30.22S
$$

COZ017>023-064>068-260600-
...SOUTHWEST COLORADO...

CITY           SKY/WX    TMP DP  RH WIND       PRES   REMARKS
DURANGO        PTCLDY    71  45  39 N6        30.24R
CORTEZ         CLEAR     70  46  42 NE7       30.17S
PAGOSA SPRINGS PTCLDY    64  46  52 CALM      30.34R
TELLURIDE      PTCLDY    61  48  63 SE7       30.46F
WOLF CREEK PAS NOT AVBL
$$

COZ009-010-012-014-032>034-037-058>063-260600-
...CENTRAL COLORADO...

CITY           SKY/WX    TMP DP  RH WIND       PRES   REMARKS
ASPEN          PTCLDY    58  50  75 SW7       30.36R
BUENA VISTA    CLEAR     58  50  75 NW6       30.38S
COPPER MTN     PTCLDY    54  37  54 W8        30.69S
BERTHOUD PASS  FAIR      43  30  61 NW18      30.71S
COTTONWOOD PAS CLEAR     61  45  55 CALM      30.53R
GUNNISON       CLEAR     59  48  67 N5        30.40S
KREMMLING      PTCLDY    55  52  88 CALM      30.36R
LEADVILLE      PTCLDY    46  44  93 NE8       30.53R
MONARCH PASS   PTCLDY    50  43  76 NW13      30.80R
SALIDA         CLEAR    N/A N/A N/A W3        30.43R
SUNLIGHT       MOCLDY    54  46  76 CALM      30.60S
WILKERSON PASS NOT AVBL
$$

COZ069>075-260600-
...SAN LUIS VALLEY/SANGRE DE CRISTO MOUNTAINS...

CITY           SKY/WX    TMP DP  RH WIND       PRES   REMARKS
ALAMOSA        PTCLDY    61  50  67 NE5       30.34R
LA VETA PASS   CLEAR     59  41  51 NW3       30.56S
SAGUACHE       PTCLDY    61  48  63 NW10      30.38R
$$

COZ035-036-038>040-260600-
...NORTHERN COLORADO FRONT RANGE...

CITY           SKY/WX    TMP DP  RH WIND       PRES   REMARKS
DENVER INTL AP MOCLDY    71  54  54 SW17      30.11F
DMNS CITY PARK   N/A     68  55  62 SW7       30.12S
AURORA         PTCLDY    66  57  72 S7        30.14F
FRONT RANGE AP NOT AVBL
ERIE MUNI ARPT PTCLDY    69  53  55 S7        30.08F
BOULDER MUN AP PTCLDY    77  45  31 SW8       30.09F
CENTENNIAL     PTCLDY    67  55  65 SW14      30.15F
BROOMFIELD     NOT AVBL
FORT COLLINS   PTCLDY    68  52  56 SW8       30.06F
LONGMONT       PTCLDY    71  52  50 SW3       30.08F
$$

COZ041-046-047-076>085-087-088-260600-
...PIKES PEAK/PALMER DIVIDE AND SOUTHERN FOOTHILLS...

CITY           SKY/WX    TMP DP  RH WIND       PRES   REMARKS
COLO. SPRINGS  MOCLDY    71  52  50 NW12      30.20F
A. F. ACADEMY  PTCLDY    66  54  65 N3        30.23F
ELLICOTT       MOCLDY    69  53  56 NE6       30.19F
FALCON         MOCLDY    68  48  50 NW3       30.25F
FORT CARSON    PTCLDY    67  55  66 W5        30.17F
LIMON          MOCLDY    68  55  63 NW7       30.12F
MONUMENT HILL  NOT AVBL
TRINIDAD       PTCLDY    70  53  54 W5        30.19R
$$

COZ042>045-048>051-090-091-260600-
...NORTHEAST COLORADO...

CITY           SKY/WX    TMP DP  RH WIND       PRES   REMARKS
GREELEY ARPT   PTCLDY    70  54  56 SW8       30.04F
AKRON          CLOUDY    80  47  31 CALM      30.06F
BURLINGTON     CLOUDY    71  61  70 S3        30.03F
WRAY             N/A     78  60  54 S6        29.98S
STERLING       CLOUDY    72  61  68 S7        29.99F
HOLYOKE        CLOUDY    75  63  64 E6        29.96F
FORT MORGAN    CLOUDY    69  58  68 CALM      30.04F
$$

COZ086-089-092>099-260600-
...SOUTHEAST COLORADO...

CITY           SKY/WX    TMP DP  RH WIND       PRES   REMARKS
PUEBLO         PTCLDY    72  61  68 W8        30.08F
LA JUNTA       MOCLDY    79  52  38 W6        30.04R
LAMAR          CLOUDY    75  63  66 E15       29.94F
SPRINGFIELD      N/A     77  58  51 N16       30.04R
$$



USA.gov is the U.S. government's official web portal to all federal, state and local government web resources and services.